GFSCGP_850_thetae_084.txt.gz
Theta_e
313 315 315 315 315 315 315 315 315 315 315 316 316 316 317 315 315 315 314 315 315 315 315 314 312 312 312 312 313 313 313 314 317 324 327 330 333 328 328 330 333 336 337 337
314 314 314 313 313 314 314 315 315 315 315 315 315 315 316 316 315 315 315 315 315 315 314 316 317 313 312 312 312 312 312 313 313 315 325 326 325 334 340 335 327 328 331 337
313 314 313 313 313 314 314 315 315 315 315 314 315 315 316 315 315 315 315 315 316 314 315 317 317 315 313 313 312 312 312 312 312 313 313 314 316 319 333 336 328 326 327 330
313 312 312 312 313 313 314 314 314 313 314 314 314 314 315 315 314 315 315 315 315 315 316 316 316 317 317 316 312 312 312 313 312 312 313 315 315 323 330 336 339 337 326 328
313 312 312 312 313 313 314 314 313 313 314 314 314 314 315 315 315 316 316 314 315 316 316 316 317 317 317 317 318 317 312 312 312 312 312 313 315 322 325 330 335 337 329 327
313 312 312 313 313 314 313 313 314 314 314 314 314 313 315 315 315 315 315 314 314 315 315 316 316 316 316 317 318 319 320 318 312 312 312 312 313 313 315 321 331 337 339 330
314 313 313 313 314 313 313 314 314 314 315 314 315 314 314 315 314 314 314 313 313 315 315 315 315 315 316 317 318 318 319 319 318 315 314 314 313 313 314 314 316 326 328 324
314 314 313 314 313 313 314 314 314 313 312 313 314 313 315 314 312 312 312 314 315 315 315 315 315 315 316 317 317 317 318 319 320 319 319 319 320 317 315 315 315 316 321 326
314 314 313 313 313 313 314 314 314 313 313 313 313 313 314 314 313 313 313 314 314 314 314 313 314 315 315 316 316 317 318 319 319 320 321 323 325 325 317 314 315 328 323 336
314 315 314 313 312 313 313 313 313 313 313 313 313 314 314 314 314 314 314 314 314 314 313 313 314 314 315 315 315 316 316 316 318 319 320 321 325 329 330 321 316 316 327 336
315 315 315 314 314 314 314 313 313 314 317 317 314 314 315 314 314 314 315 314 314 314 314 314 314 314 314 314 315 316 316 317 317 317 319 321 323 327 329 332 328 318 320 333
314 314 315 313 313 313 313 314 314 316 315 315 315 315 315 315 314 314 315 314 314 314 314 314 313 313 313 314 314 315 315 315 315 316 317 319 323 325 328 331 333 322 329 337
313 314 315 314 314 313 313 313 314 314 315 316 317 315 315 315 316 314 315 315 314 314 314 314 313 313 313 313 313 313 314 313 314 315 317 318 322 324 326 329 333 332 335 338
313 314 314 315 313 313 314 313 313 313 316 315 315 315 315 315 316 315 315 315 314 314 314 313 313 313 312 312 313 313 313 312 314 316 317 318 321 324 326 328 334 336 336 338
313 315 314 313 313 313 313 313 313 313 314 315 314 315 315 315 315 315 314 314 314 314 314 314 313 314 314 314 314 313 313 312 313 315 316 318 321 323 325 326 336 337 336 339
312 314 313 312 311 311 312 313 312 312 313 314 314 314 314 313 314 314 314 315 314 314 314 314 313 314 314 314 314 313 313 311 312 314 315 318 321 322 324 330 338 337 337 342
311 312 313 313 311 311 313 312 312 313 313 313 314 314 316 315 315 315 315 314 314 314 314 314 314 314 314 314 313 313 312 312 312 313 316 318 320 321 328 335 340 336 339 344
310 311 313 314 311 315 312 312 313 314 315 315 314 315 315 314 314 314 313 313 314 315 315 314 314 314 313 313 312 312 311 311 313 314 316 317 316 322 332 337 337 337 342 345
310 312 312 313 313 311 311 312 314 316 316 314 315 314 314 313 313 313 313 313 313 313 313 312 312 311 311 311 311 311 310 311 310 312 313 315 318 326 333 338 336 340 344 345
310 311 313 313 315 315 315 313 313 314 316 315 314 314 314 312 315 315 313 313 313 311 310 311 310 309 309 310 310 310 311 311 311 312 314 317 324 330 334 337 340 343 343 344
314 311 312 313 316 315 314 313 312 316 316 313 313 312 312 314 314 313 313 312 310 310 309 308 309 308 309 309 309 311 312 312 313 312 314 320 326 334 336 337 340 341 345 345
313 314 315 315 317 316 312 313 314 313 312 312 312 312 312 312 312 312 311 310 309 308 308 308 307 307 308 309 309 312 312 311 313 314 318 326 336 338 337 337 338 340 343 346
313 312 313 313 314 312 311 311 311 311 309 309 310 310 312 312 312 312 310 309 308 308 307 307 307 307 308 310 310 312 314 315 315 318 325 331 335 338 342 343 343 343 345 342
310 310 311 312 311 311 310 310 311 311 311 311 311 311 312 311 311 309 308 308 308 307 307 306 306 308 310 311 312 314 315 316 319 321 327 330 334 335 339 339 341 341 339 337
310 309 307 309 310 308 309 308 309 310 310 309 308 308 308 308 308 308 308 308 307 307 306 306 307 308 309 310 312 315 316 317 320 322 326 331 333 335 336 337 336 336 336 336
304 307 307 307 304 304 305 308 309 307 306 306 307 308 307 307 307 306 306 306 306 305 305 304 306 307 308 310 313 317 317 319 320 324 328 331 331 333 334 334 334 334 332 332

GFSCGP_850_thetae_087.txt.gz
Theta_e
316 317 317 316 317 317 317 317 318 318 318 318 318 319 320 320 319 318 318 318 318 318 319 317 319 319 313 313 313 316 320 319 314 320 330 332 336 342 343 330 329 337 339 340
316 316 316 317 317 316 317 317 317 317 318 318 318 318 318 319 319 318 318 318 317 318 317 317 319 320 316 317 313 313 317 320 315 314 319 329 332 331 333 337 343 335 334 335
315 316 316 315 315 315 316 317 317 317 318 318 318 318 318 318 317 317 316 316 317 317 317 317 319 319 320 321 315 313 312 312 313 313 313 316 317 320 326 329 332 332 330 337
315 316 314 315 314 315 316 317 316 316 317 317 318 318 318 318 318 318 317 316 316 317 317 318 318 319 319 319 320 322 316 312 318 315 313 318 318 321 326 331 335 333 341 343
315 315 314 314 315 315 315 316 316 316 317 317 317 317 317 318 318 317 317 317 317 318 318 318 318 318 318 319 319 321 323 321 325 320 313 314 318 324 323 321 326 331 338 346
315 315 315 315 315 315 315 315 316 316 316 317 317 317 317 318 318 318 318 316 317 317 318 318 318 318 318 318 319 320 321 322 315 317 324 317 316 314 316 320 324 327 333 337
316 316 315 314 314 315 315 316 316 317 317 318 318 317 318 318 318 318 317 316 316 316 317 317 317 317 317 318 318 319 319 321 321 321 318 324 327 327 320 315 320 323 325 331
316 316 316 315 316 315 316 317 318 320 318 317 318 316 317 317 316 315 315 314 314 315 316 316 317 316 316 317 318 319 319 320 321 322 323 323 324 325 328 328 327 327 327 328
317 316 316 316 316 315 315 315 316 316 316 317 317 317 317 316 315 314 314 315 316 316 316 316 316 315 315 317 317 318 318 319 319 320 321 322 323 324 325 327 327 329 325 327
316 316 316 316 315 315 315 315 316 317 316 315 315 316 316 317 316 316 316 315 316 316 316 316 315 315 316 316 317 317 317 318 319 319 320 320 321 322 324 325 328 329 330 325
316 317 316 316 317 317 315 316 316 315 316 318 321 317 317 317 317 317 317 316 316 316 316 316 317 316 316 315 315 316 317 318 318 318 319 319 320 321 322 324 327 329 330 333
315 316 316 316 315 316 317 316 317 319 316 315 315 315 316 317 317 316 316 316 316 316 316 316 316 316 316 315 315 315 316 316 316 316 316 316 317 319 321 323 326 327 326 330
315 317 318 316 316 315 315 315 314 314 316 317 320 320 318 318 317 317 317 316 316 316 316 316 316 316 316 315 315 315 314 315 315 315 315 316 318 319 321 321 325 328 331 332
313 315 317 317 315 317 317 317 315 315 318 316 315 315 316 316 317 317 316 316 316 316 316 316 316 316 316 315 316 316 315 315 315 315 314 314 316 318 320 320 324 327 330 334
313 314 314 314 315 315 316 316 315 316 315 316 315 315 315 315 316 316 315 315 316 316 316 316 315 315 316 316 316 316 316 316 316 316 315 314 315 316 318 320 323 324 328 332
312 315 313 315 313 313 314 313 313 314 313 314 314 315 316 314 314 314 314 316 316 316 316 315 315 315 315 316 316 316 316 316 316 316 315 314 314 315 318 319 323 324 327 330
312 313 314 316 314 315 314 313 314 313 313 314 314 314 314 314 315 316 317 317 316 315 315 316 316 316 316 316 316 316 316 316 316 315 314 313 313 315 318 320 322 324 326 329
312 313 314 317 314 318 314 314 314 314 314 315 316 316 315 315 316 316 316 315 314 315 316 315 314 314 314 314 314 313 313 313 314 314 314 313 314 316 318 320 320 322 325 333
311 313 314 315 315 313 313 313 313 316 316 315 316 316 316 315 314 314 313 313 315 315 315 314 314 313 312 312 312 312 312 312 312 312 311 314 314 314 313 315 318 322 329 336
314 314 314 315 316 316 317 315 314 315 317 317 316 316 315 314 315 315 314 314 314 313 314 313 312 311 310 311 311 311 310 311 310 311 312 312 312 313 314 315 318 325 332 338
313 313 316 315 317 315 316 315 314 316 318 314 313 314 314 315 315 314 313 313 313 314 314 312 311 310 311 310 309 309 310 310 311 312 314 314 313 313 315 316 320 328 336 337
314 317 317 316 316 317 313 314 315 315 313 314 313 312 313 313 313 313 313 313 313 314 312 311 310 311 310 309 309 310 310 312 312 313 314 314 314 314 317 319 327 333 337 340
316 314 315 314 316 314 312 313 312 312 312 311 312 311 311 311 311 311 311 311 311 311 310 310 310 309 309 308 309 310 311 311 312 313 312 312 314 316 320 323 331 337 338 341
312 312 313 313 314 312 311 311 311 310 310 311 310 308 307 308 308 309 309 310 310 309 309 309 309 308 308 308 309 311 311 312 314 315 312 314 320 321 326 333 337 338 341 342
309 310 310 311 311 309 311 310 310 310 310 310 308 307 307 307 307 307 307 307 308 307 307 307 307 307 309 308 309 311 312 315 318 318 321 332 329 333 336 336 338 339 340 340
308 308 308 308 306 305 305 307 309 310 308 306 306 306 305 305 304 304 304 304 304 305 305 306 306 307 308 308 309 311 313 316 320 321 324 334 335 336 337 337 339 339 339 338

GFSCGP_850_thetae_093.txt.gz
Theta_e
314 312 312 312 312 314 314 314 315 316 317 316 315 316 317 318 319 318 318 319 320 322 322 321 322 324 322 320 320 321 320 318 324 329 325 332 329 330 329 330 330 330 337 338
313 313 315 316 317 316 315 316 315 316 316 316 315 316 316 318 318 318 318 319 322 321 320 321 321 321 322 320 317 316 316 316 315 322 326 325 333 334 340 334 334 335 339 340
313 315 317 316 315 316 315 315 315 315 315 315 315 315 315 318 318 318 318 318 320 321 320 320 321 320 320 318 319 320 319 315 317 318 319 321 317 325 338 340 335 340 341 341
314 315 316 315 315 315 314 315 316 315 315 315 316 315 314 317 316 316 317 318 318 320 320 320 320 320 319 318 316 316 315 315 316 315 317 318 322 322 323 329 329 330 331 330
314 314 314 315 315 315 314 315 315 315 313 313 314 314 315 315 316 316 315 318 318 320 319 320 319 320 321 321 320 319 318 317 316 313 314 315 318 322 326 320 325 327 326 330
313 315 314 314 315 315 315 314 313 313 312 313 314 314 315 315 315 316 317 317 318 319 319 320 320 320 320 320 319 319 319 318 318 318 315 313 314 313 313 315 316 320 326 324
315 316 315 315 314 314 313 312 310 312 312 314 314 315 316 317 317 318 317 317 318 319 319 320 319 319 319 318 319 319 319 319 319 318 319 319 319 319 313 314 313 313 313 314
316 316 315 316 317 314 313 311 313 317 317 317 317 319 317 319 317 318 318 318 318 319 319 319 319 319 319 318 318 319 319 320 320 319 319 319 320 319 318 314 313 314 319 320
315 316 317 317 317 316 315 315 314 317 319 319 315 315 315 317 318 317 317 318 318 319 319 319 319 318 318 317 317 318 319 319 320 319 318 319 319 319 319 318 318 315 314 315
315 315 316 316 316 316 315 315 316 319 320 320 317 316 314 318 318 317 316 314 315 316 317 317 318 317 317 317 316 316 316 317 317 318 318 318 319 319 321 323 322 320 319 318
316 314 315 316 316 315 314 315 317 318 317 317 316 314 316 317 316 316 316 316 316 316 317 316 316 316 317 316 317 317 317 317 317 318 319 319 320 319 320 319 318 317 318 318
316 316 315 314 314 315 318 316 318 320 319 319 317 316 316 316 315 316 316 316 316 315 316 317 317 317 317 317 317 317 316 316 316 316 316 317 317 317 316 316 316 314 315 317
314 314 316 316 314 316 317 317 317 317 317 317 320 317 316 317 316 317 316 316 316 316 315 318 317 317 317 317 317 317 317 316 316 316 316 316 316 316 316 316 315 316 316 314
315 316 316 317 316 314 316 316 315 317 318 316 319 317 315 316 317 316 316 316 316 316 315 316 317 317 317 317 317 317 317 316 317 316 316 317 317 316 316 316 316 316 316 316
313 315 315 315 315 315 313 313 315 317 317 317 315 316 315 314 316 315 315 316 316 315 315 315 316 317 317 317 316 316 317 319 318 318 319 318 318 318 318 318 317 317 316 316
313 314 315 315 314 314 313 313 314 314 316 316 316 316 315 316 315 316 316 316 315 316 316 318 317 316 318 318 317 317 317 317 316 315 315 315 315 318 318 318 317 317 317 315
308 311 312 312 312 313 313 315 316 316 315 315 318 317 315 316 315 314 314 316 316 318 317 316 316 317 317 317 317 316 316 315 315 315 315 315 315 315 314 315 316 316 316 315
308 309 309 309 312 312 312 315 315 315 317 317 316 317 317 315 315 314 315 314 313 314 314 314 315 315 315 315 315 316 315 315 314 313 313 313 313 313 312 312 313 314 316 316
312 311 308 312 309 312 312 316 316 317 317 315 315 314 314 313 313 313 314 312 312 311 312 311 312 313 314 313 314 314 314 314 313 312 312 311 311 311 312 312 311 311 312 313
315 312 309 309 311 313 315 315 315 315 315 313 314 312 312 312 311 311 312 312 311 311 312 311 311 312 311 312 313 314 315 313 313 313 312 312 311 310 309 310 311 312 312 311
314 310 309 312 313 312 314 313 315 317 316 313 312 312 312 310 310 311 310 309 308 308 309 309 309 309 309 311 311 311 311 311 311 311 310 309 309 309 310 312 311 311 312 312
315 314 314 314 314 313 313 314 315 313 311 311 310 310 310 310 309 308 307 306 305 305 305 306 307 307 307 308 308 308 309 309 308 309 308 309 309 309 310 311 311 312 313 314
314 313 310 314 311 310 309 311 309 309 308 308 308 308 309 307 306 306 305 304 303 303 303 304 305 305 305 305 305 306 306 307 307 308 309 310 310 310 310 311 311 312 312 314
312 310 312 310 312 306 306 306 306 306 306 306 307 307 307 306 305 304 303 302 302 301 302 303 303 304 304 304 304 305 305 306 307 308 309 309 309 310 310 312 313 312 311 313
310 309 307 307 308 305 307 305 304 304 305 306 306 305 306 304 304 303 302 302 300 300 301 301 301 301 302 302 303 303 304 305 308 308 308 309 310 311 311 310 310 312 313 313
309 307 308 307 305 305 305 304 304 305 305 304 304 305 305 304 303 301 301 300 299 299 298 299 299 300 301 302 303 303 304 306 307 308 309 311 312 313 314 314 313 313 314 315

GFSCGP_850_thetae_096.txt.gz
Theta_e
312 310 310 310 309 311 311 311 312 313 315 314 313 313 313 315 316 316 316 317 321 322 323 326 325 325 326 326 325 325 325 323 325 325 327 328 329 328 333 340 340 340 340 340
311 310 312 312 313 313 312 312 313 313 314 314 312 312 313 313 315 316 316 318 318 319 320 323 323 323 324 323 325 323 323 321 321 325 330 334 333 330 329 330 329 330 336 336
310 312 314 314 314 315 313 313 314 314 314 313 313 312 313 313 315 317 317 318 318 319 321 322 323 323 324 324 324 322 321 321 318 318 324 325 325 327 329 328 329 330 334 337
310 312 314 313 313 313 313 313 314 314 313 311 314 313 312 313 313 314 316 317 317 318 320 321 321 322 322 322 322 321 319 318 315 315 316 320 324 324 325 327 327 328 327 328
312 312 312 313 313 313 312 313 313 314 312 311 312 311 313 312 314 313 313 316 316 316 317 320 321 321 321 320 320 318 316 314 314 314 314 315 317 318 320 321 322 323 326 327
311 313 312 312 314 313 313 313 311 310 309 310 310 311 312 312 312 314 315 317 318 318 316 317 320 320 320 318 318 318 318 317 316 315 314 313 313 314 316 321 322 325 326 326
313 313 313 314 313 313 312 309 309 309 310 312 311 312 312 312 315 315 315 316 317 318 316 317 320 320 320 320 319 318 318 317 316 316 317 315 314 313 313 315 317 317 319 319
314 315 314 315 314 314 311 310 313 313 312 313 314 316 315 315 316 316 318 317 316 317 316 319 321 320 320 319 318 318 318 318 318 318 318 318 317 317 317 316 315 314 314 316
313 314 316 315 315 315 315 315 311 316 319 318 315 314 314 315 314 316 317 316 316 318 319 321 320 319 319 318 318 318 318 318 319 319 318 318 318 318 318 317 318 319 318 318
314 315 315 315 315 314 315 314 316 318 320 321 318 317 316 313 315 315 316 317 316 314 318 319 319 319 318 318 318 317 318 317 317 318 318 318 317 317 318 319 319 320 319 319
315 314 315 314 314 313 314 314 315 314 317 322 319 314 311 315 315 316 315 315 315 316 317 316 316 319 318 317 317 317 316 316 316 317 318 317 317 318 318 319 319 317 316 315
314 313 314 314 313 313 316 315 314 314 314 319 320 319 315 313 313 314 315 315 315 316 316 316 316 316 316 317 317 316 316 316 316 316 317 317 316 316 317 317 315 315 316 316
314 312 314 314 311 312 315 316 315 315 315 317 319 314 314 315 315 314 314 316 316 316 316 316 316 315 317 316 316 316 317 317 316 317 316 316 315 316 316 316 316 316 316 316
313 313 314 316 316 315 316 315 315 315 314 314 316 315 314 315 316 315 314 315 316 316 315 316 316 315 315 316 317 316 317 317 316 316 316 316 316 316 316 316 316 316 316 316
311 314 314 314 315 315 316 315 315 316 314 315 314 315 314 314 314 314 315 316 315 315 315 316 316 316 316 315 316 316 317 317 317 317 317 316 316 316 317 317 317 317 317 317
310 311 314 315 314 314 314 313 313 312 312 312 313 314 315 315 314 314 314 315 315 315 315 316 316 316 316 316 316 317 317 316 316 316 317 317 316 316 317 317 317 318 318 318
307 308 310 309 312 312 311 310 313 315 314 316 316 316 315 314 314 314 314 314 314 314 313 313 313 312 314 315 315 315 317 316 315 315 315 315 315 314 314 314 314 314 314 314
305 305 304 306 309 310 309 313 315 313 313 313 311 313 315 313 312 311 314 312 311 311 311 311 312 312 310 310 312 313 314 314 315 315 316 315 314 314 314 313 312 313 312 312
305 306 306 308 305 309 311 314 314 315 315 313 312 313 312 311 311 311 313 311 310 309 309 310 310 310 310 311 311 312 311 311 312 313 313 315 314 313 313 312 311 311 311 311
310 309 310 304 308 311 313 314 313 314 315 312 311 311 310 310 310 309 310 309 308 308 307 307 307 307 307 308 308 309 310 311 312 313 314 314 313 313 312 312 311 311 310 309
309 309 304 305 310 311 312 312 313 313 313 310 309 308 308 307 307 308 308 307 306 306 306 305 304 303 302 303 304 305 306 307 308 308 309 309 310 310 309 309 308 308 308 309
313 311 310 311 314 313 310 312 313 310 308 307 307 307 307 307 307 305 306 306 305 305 304 304 303 302 302 302 303 304 304 304 304 305 305 306 306 307 307 308 307 309 310 311
313 313 309 307 308 309 307 308 306 305 304 305 305 305 307 307 304 306 304 304 304 303 302 302 301 301 300 301 302 303 304 303 304 304 305 306 307 307 308 308 309 310 310 310
309 308 310 307 307 304 305 305 305 304 304 304 305 305 305 304 304 304 304 304 303 302 302 301 300 299 300 300 300 300 301 301 302 303 303 304 305 305 307 309 310 310 310 311
307 306 305 305 305 305 305 305 305 305 305 304 303 303 303 303 303 301 301 301 299 299 300 299 298 298 298 299 299 300 301 302 303 304 304 305 306 307 308 308 307 307 308 309
307 304 301 303 305 305 305 305 304 304 303 302 302 302 303 301 300 300 298 297 299 297 298 297 298 298 298 299 300 301 302 303 304 305 306 306 307 308 309 310 310 310 310 310

GFSCGP_850_thetae_102.txt.gz
Theta_e
309 307 308 308 307 308 309 309 309 309 309 311 309 310 310 311 312 312 314 315 315 316 317 317 317 323 324 326 325 325 326 328 330 340 341 341 341 341 339 337 336 330 330 330
307 308 308 309 309 309 309 309 309 309 310 309 310 310 309 309 311 313 314 314 315 316 316 317 316 321 323 323 326 326 325 326 326 338 341 343 343 343 343 335 330 333 332 328
308 309 310 310 311 311 310 310 311 311 312 310 311 310 311 311 311 313 314 315 315 315 315 316 316 317 320 324 324 326 325 325 325 335 342 343 339 340 331 329 329 329 333 332
308 308 310 309 311 310 310 310 311 311 311 310 310 311 310 310 310 310 313 314 314 314 315 315 315 315 316 317 320 324 324 327 326 338 339 338 335 333 328 329 331 332 333 332
310 310 310 311 310 310 310 310 310 311 309 309 310 307 308 309 310 309 308 312 314 314 315 314 317 317 317 316 316 321 324 324 326 330 333 332 330 333 331 331 333 334 334 334
309 310 310 309 311 310 311 311 307 305 305 308 308 308 309 309 310 309 310 312 313 314 315 316 316 317 317 317 317 317 323 324 326 328 329 326 327 328 328 326 326 326 328 328
311 310 309 311 311 310 310 308 309 310 309 313 309 308 310 309 309 309 309 312 314 315 316 316 316 316 317 317 317 317 322 325 325 322 320 319 317 315 315 315 316 318 320 321
310 312 311 311 310 311 308 307 310 314 312 313 312 309 309 308 311 313 313 314 314 314 315 316 317 318 318 317 317 316 320 326 325 320 317 315 314 314 314 314 313 313 312 313
310 311 312 312 311 310 311 309 308 310 313 314 312 312 313 313 312 312 314 313 314 315 316 318 319 319 319 317 315 317 323 324 319 316 316 317 316 316 315 316 315 315 315 314
312 313 313 313 313 313 313 313 315 313 318 316 314 315 314 314 313 313 313 313 314 314 315 315 317 318 319 319 319 321 322 319 317 317 317 316 315 315 315 316 315 314 315 316
312 311 313 313 313 314 313 314 315 315 317 321 321 315 310 311 312 313 312 313 315 315 315 315 315 317 318 318 319 321 318 318 317 317 316 315 315 315 315 316 316 315 316 317
312 313 315 315 311 313 314 315 317 318 319 317 313 316 312 310 312 313 312 313 314 315 315 315 314 316 317 317 316 319 319 318 318 317 317 317 316 316 316 317 316 316 316 316
312 313 317 316 313 313 316 316 315 314 312 314 316 315 311 311 311 312 312 314 314 315 315 315 315 314 315 315 316 316 316 316 317 318 318 318 318 318 317 318 318 316 316 316
312 312 314 317 315 313 315 315 315 315 315 312 313 314 312 312 312 311 311 313 314 314 314 314 313 314 315 314 314 315 316 316 315 315 316 316 316 316 316 316 318 318 316 316
311 313 313 314 314 312 312 314 314 315 314 315 312 312 311 310 311 311 312 313 314 312 311 311 311 311 312 312 312 312 314 315 315 316 316 316 316 316 316 316 316 318 318 317
308 309 311 312 311 311 314 312 311 312 312 312 312 313 308 308 311 312 311 312 311 310 309 309 310 309 309 310 311 311 311 312 312 314 315 315 315 315 315 316 316 317 317 318
307 308 310 309 309 310 310 309 309 310 311 312 313 311 308 310 311 311 310 310 310 309 308 307 308 308 308 308 308 308 309 310 311 311 312 313 314 314 315 315 315 316 316 316
304 305 306 307 307 311 308 312 312 312 313 312 312 312 311 311 309 308 308 308 310 307 306 305 304 305 306 307 307 307 308 308 308 310 310 310 311 312 312 313 314 315 315 315
305 306 306 309 307 308 310 313 313 312 313 312 313 311 310 308 307 307 309 309 307 305 304 304 303 304 305 305 306 306 306 306 307 307 307 308 308 309 310 311 312 313 314 315
306 309 309 307 308 311 306 312 311 311 312 309 308 308 306 306 308 307 307 306 305 304 303 302 303 304 303 303 304 304 304 304 304 304 304 304 305 306 306 307 309 310 312 313
310 310 307 311 312 311 311 310 310 311 307 305 305 304 304 305 305 305 305 305 304 303 302 303 303 304 303 303 303 303 302 302 301 301 301 302 302 302 303 304 304 305 307 308
309 311 304 309 310 308 305 307 308 305 304 304 304 304 304 304 304 305 304 303 302 301 303 302 301 301 300 300 301 302 301 300 300 300 300 300 301 301 302 302 303 303 304 304
310 309 307 307 304 305 305 305 305 305 304 304 304 305 305 305 304 302 302 302 302 303 302 300 300 299 299 299 298 298 299 300 300 299 299 299 300 301 302 302 303 303 304 304
307 306 308 307 305 305 305 305 305 304 305 304 304 304 303 302 302 302 302 302 302 301 298 299 299 299 298 297 298 299 299 298 298 298 298 300 300 301 300 300 300 301 302 303
305 305 304 304 303 304 304 305 305 304 303 303 303 302 302 302 302 300 298 298 298 298 297 297 297 296 296 296 296 297 297 297 298 298 299 300 300 301 302 303 303 303 303 302
304 303 301 303 304 304 304 304 303 303 302 303 303 302 302 302 301 299 297 297 298 298 297 294 296 294 295 295 296 296 297 297 298 298 299 300 301 301 302 302 303 304 305 306

GFSCGP_850_thetae_105.txt.gz
Theta_e
311 313 313 314 313 311 312 313 314 315 315 314 316 316 317 316 315 316 316 316 315 315 316 317 317 317 318 322 327 327 328 328 333 335 339 341 342 341 337 336 336 328 328 328
312 313 313 311 311 312 313 314 315 315 315 314 316 316 316 316 316 315 316 316 316 315 316 316 316 316 317 318 324 327 327 328 330 331 331 340 340 342 336 332 332 331 332 333
313 313 312 312 313 313 314 314 315 315 315 314 315 316 316 315 314 314 315 315 314 315 314 314 314 315 315 316 320 324 328 332 332 335 337 335 342 339 335 335 337 338 336 335
312 312 312 312 313 313 314 314 315 315 315 315 314 315 316 315 316 316 315 315 316 315 314 314 314 315 315 315 316 317 322 325 333 335 339 339 337 340 338 337 339 340 336 331
314 312 312 313 314 313 314 313 314 314 315 314 315 315 316 315 315 316 316 315 315 314 314 314 316 315 316 316 316 317 317 318 323 332 335 339 342 341 340 338 337 333 330 330
314 311 312 314 312 313 313 313 313 312 313 316 316 316 316 316 316 317 316 315 314 314 315 315 315 315 315 316 316 316 317 317 318 322 331 338 340 339 335 338 335 331 332 331
315 315 314 312 314 315 313 314 316 317 317 318 317 317 317 316 316 317 316 315 316 316 315 315 315 316 316 316 316 317 317 317 317 319 323 332 339 339 337 336 333 331 331 330
316 317 314 313 314 316 315 315 316 318 318 317 315 317 317 315 315 314 315 316 315 316 316 317 317 318 319 319 318 318 317 317 316 320 323 326 336 337 334 331 324 322 321 321
314 314 314 315 315 314 316 315 315 316 316 317 317 317 317 317 317 316 317 316 316 316 316 316 316 317 318 319 319 319 318 317 317 320 325 326 323 319 315 314 313 314 314 314
316 317 316 315 314 313 315 315 318 318 319 321 319 318 318 318 317 317 317 316 314 315 316 316 316 316 317 317 318 318 321 319 322 323 324 319 316 315 315 315 316 315 314 314
314 315 316 316 316 317 316 316 317 318 319 322 322 320 318 317 316 317 317 314 313 314 316 316 316 315 316 316 316 316 319 322 322 323 318 316 316 316 315 316 315 315 314 314
314 316 318 317 316 314 315 316 318 323 323 321 322 320 316 316 316 315 314 313 313 315 316 316 315 315 314 315 315 317 315 316 318 319 318 318 317 317 316 317 316 316 315 314
314 316 318 317 316 315 316 317 317 317 317 321 322 319 315 315 315 313 314 313 313 315 316 315 314 314 314 314 314 316 317 316 316 316 315 317 318 318 316 315 316 318 316 315
312 315 316 317 317 316 318 316 316 317 320 318 317 317 315 314 314 314 314 314 314 315 314 313 313 312 311 313 312 313 315 317 317 315 316 316 316 316 317 317 318 318 318 317
311 315 314 313 313 312 312 312 312 312 314 317 315 314 313 313 314 315 314 313 313 314 312 312 311 311 310 309 310 311 311 310 312 315 315 315 316 316 316 316 316 316 317 318
312 313 312 312 310 310 310 310 310 311 312 314 313 312 312 313 312 313 313 312 311 312 312 311 309 308 307 307 308 308 309 309 310 310 310 311 313 315 315 315 315 316 316 316
310 311 311 311 309 310 312 311 311 311 311 313 314 314 314 314 314 313 311 310 310 310 311 309 308 307 306 306 304 306 306 306 307 308 309 309 310 311 313 314 315 315 315 316
310 310 310 311 310 314 313 314 314 314 315 315 315 315 314 312 310 310 309 309 309 311 309 308 307 306 305 305 305 305 305 305 305 305 306 306 307 308 310 310 311 312 313 314
308 309 310 312 313 312 312 314 314 313 313 313 314 313 311 308 307 309 308 308 308 308 307 307 306 305 304 304 305 305 305 305 305 305 305 305 305 305 306 307 309 310 310 312
308 309 311 312 314 314 312 313 312 312 314 309 308 308 308 306 307 308 307 306 305 306 306 305 304 304 304 304 304 304 304 304 304 304 304 304 303 303 304 305 305 307 308 309
310 311 312 313 315 313 312 311 311 315 314 308 307 307 306 307 306 305 305 305 306 304 303 303 303 304 304 303 302 302 301 302 303 303 303 303 302 302 303 303 304 305 306 307
314 313 313 313 313 313 308 309 311 310 307 306 306 305 306 306 306 305 305 304 303 303 303 302 302 302 302 302 301 301 301 300 300 300 300 301 302 302 302 302 303 304 304 305
313 313 313 314 313 310 308 308 306 306 306 306 306 305 305 304 305 304 303 303 302 302 300 299 301 301 300 299 300 299 299 298 299 299 300 300 300 300 300 301 302 304 305 305
310 309 311 311 309 308 307 306 306 305 305 305 304 304 304 304 304 304 303 302 301 300 299 298 298 298 299 298 297 298 297 298 299 297 298 298 299 300 301 301 301 302 303 303
309 309 310 310 308 307 306 306 304 304 304 303 303 304 303 303 303 303 302 301 300 299 298 298 298 298 297 297 297 297 297 298 297 297 298 298 299 299 300 300 300 301 302 303
308 310 310 310 307 307 307 305 304 303 303 303 303 303 303 303 303 303 302 301 300 299 297 298 298 298 296 295 295 296 296 296 296 297 297 298 298 299 300 300 301 301 302 303

GFSCGP_850_thetae_111.txt.gz
Theta_e
318 319 319 319 320 320 320 320 321 321 321 320 320 320 321 321 321 321 321 321 320 320 320 321 321 323 323 325 328 333 340 347 352 351 351 350 350 350 350 349 348 348 346 341
320 319 319 319 320 319 319 319 320 320 320 320 321 321 321 321 322 321 321 321 321 321 321 320 320 321 322 324 326 329 333 341 347 350 350 349 349 349 349 349 348 346 346 342
319 320 318 318 318 318 318 319 319 319 320 320 320 320 320 321 320 320 320 320 320 320 320 320 320 320 320 322 324 325 328 333 336 343 348 350 350 349 348 349 348 346 344 344
319 319 318 317 317 317 318 318 318 319 319 320 321 321 322 322 322 322 320 320 319 319 319 320 320 320 320 320 321 322 326 328 331 332 340 344 347 346 345 345 346 346 345 343
319 318 317 318 317 318 318 319 319 319 320 321 320 321 321 322 322 322 322 321 320 320 320 320 320 320 321 321 322 322 323 326 329 330 333 337 342 342 344 344 344 345 347 346
318 318 318 318 317 318 318 319 319 319 320 321 321 322 322 322 323 323 322 321 320 321 320 320 321 321 321 321 322 323 325 326 328 330 331 332 334 339 343 344 343 344 346 348
320 319 319 318 319 319 318 319 322 323 324 324 324 324 324 324 323 322 323 322 322 321 321 321 322 322 322 322 323 324 325 326 327 328 330 332 333 336 333 342 342 343 343 343
321 322 320 319 319 319 321 321 322 324 325 325 325 325 325 324 323 322 321 321 322 321 321 321 321 321 321 321 322 323 323 325 326 328 329 329 331 333 334 336 339 342 341 333
321 322 321 321 320 320 320 320 322 323 324 324 324 324 324 324 323 322 321 321 322 321 320 320 319 320 320 321 321 322 322 323 325 328 330 330 330 332 333 332 335 340 341 342
322 324 322 321 319 320 320 321 322 324 327 327 324 325 325 325 324 323 323 322 321 321 320 319 318 318 319 319 319 319 321 322 323 326 328 328 329 331 333 335 335 339 339 340
322 322 324 322 323 322 321 322 323 322 323 329 330 326 324 325 324 324 322 322 321 319 318 317 317 317 318 318 318 319 320 321 321 322 324 328 330 330 331 331 333 337 337 335
319 323 324 323 322 322 323 322 323 329 329 327 328 327 324 324 324 322 322 320 319 317 316 316 316 316 317 317 317 318 320 321 322 323 322 324 325 326 328 327 329 331 333 332
319 322 324 323 322 321 322 322 320 321 322 325 329 327 322 322 321 320 320 318 316 316 316 316 316 317 317 317 316 317 317 318 318 318 321 322 322 322 322 324 325 328 329 328
315 320 320 323 322 322 322 323 322 322 327 326 325 324 322 322 321 321 318 316 316 316 316 316 316 316 316 316 316 316 316 316 316 317 317 318 321 321 317 319 322 324 325 327
315 319 317 318 318 318 318 318 318 319 320 322 322 320 320 319 319 317 316 316 316 316 315 315 315 315 315 314 314 314 314 314 314 315 315 316 317 317 317 316 316 320 323 326
315 318 316 317 317 316 317 317 317 317 317 317 318 319 318 317 316 317 317 316 315 315 314 314 314 314 315 314 314 314 313 313 313 313 313 314 314 316 314 315 315 315 319 321
316 317 319 319 316 315 316 315 315 315 315 315 315 314 317 317 318 317 316 316 315 315 314 313 313 313 313 313 313 312 313 313 312 312 312 312 312 313 314 314 315 316 315 316
314 317 317 318 316 318 316 317 316 316 316 316 316 316 317 317 315 314 314 313 313 313 313 313 312 312 312 311 311 311 311 311 311 311 311 312 312 312 313 313 313 313 314 315
313 316 318 319 318 316 316 316 317 318 317 317 317 316 315 314 313 313 313 313 313 312 311 311 311 311 310 309 309 309 308 308 309 309 310 311 311 311 311 312 312 312 313 313
315 316 317 318 320 317 319 317 315 315 317 317 315 315 315 313 315 315 313 312 311 310 311 311 310 309 308 307 306 307 307 307 306 307 308 310 309 309 309 310 311 311 312 313
318 317 319 318 318 317 318 316 314 317 319 315 314 313 312 314 313 311 310 310 309 309 309 310 309 308 307 306 306 306 305 305 304 304 306 306 307 307 308 308 310 311 311 312
318 318 318 318 321 318 315 314 316 315 313 312 311 310 309 309 308 308 308 308 308 309 309 308 307 306 306 306 306 304 303 303 302 302 303 303 303 304 305 306 307 309 310 310
318 317 318 317 318 316 315 314 313 311 311 310 309 308 308 308 308 307 307 307 308 308 308 306 305 305 306 306 305 305 303 302 301 301 301 302 301 302 302 303 304 305 306 306
312 313 314 314 314 314 312 311 311 310 309 309 308 307 307 307 307 307 307 307 308 306 305 305 305 304 303 304 303 302 302 302 301 301 300 299 300 300 301 301 301 302 303 304
311 311 312 312 313 313 312 311 310 310 309 308 307 306 306 306 306 306 307 306 304 304 304 303 302 301 299 299 301 301 300 299 300 299 300 299 299 300 300 301 302 302 302 303
311 313 314 315 313 312 311 310 310 309 309 307 305 305 306 306 306 306 304 302 304 302 300 299 298 298 297 297 298 298 298 298 298 299 299 299 299 300 300 301 301 301 301 301

GFSCGP_850_thetae_114.txt.gz
Theta_e
318 319 320 320 320 320 321 321 322 322 322 322 322 321 321 322 322 321 321 322 322 322 321 321 322 323 324 325 327 331 336 350 351 352 353 353 353 354 350 348 351 348 349 348
321 320 320 320 320 320 320 320 321 322 322 322 321 321 321 322 322 322 322 322 322 322 321 321 321 322 323 323 326 329 333 338 347 352 351 353 353 349 352 351 348 350 349 349
319 321 320 320 320 320 320 320 320 321 321 321 321 321 321 322 322 321 321 322 322 322 322 322 321 321 321 322 323 325 327 331 335 342 349 349 350 351 351 350 350 349 349 349
320 321 320 319 318 319 319 319 319 319 319 319 321 320 323 323 323 323 322 322 321 322 321 321 321 321 322 321 321 322 325 326 330 329 334 347 347 347 347 349 352 350 349 348
320 320 319 319 319 319 318 319 319 320 319 320 320 320 321 323 322 324 324 322 321 321 320 321 321 321 321 322 322 322 322 323 327 328 330 336 339 340 346 348 346 348 349 347
319 319 319 319 319 319 319 319 319 320 320 321 321 321 321 322 324 324 324 322 322 321 321 321 322 322 322 322 323 324 325 326 326 327 328 329 330 333 340 343 345 346 343 348
318 319 319 319 319 319 318 319 319 321 321 321 321 321 323 325 325 324 324 322 322 323 323 322 323 323 323 323 323 324 324 325 326 326 328 329 330 331 332 326 331 340 345 347
323 323 321 320 319 319 320 320 320 322 323 323 324 326 326 327 326 324 323 323 323 323 323 323 323 322 322 322 322 323 323 323 324 325 327 328 329 330 330 334 333 329 327 338
322 322 322 322 322 320 320 321 321 322 322 324 325 325 327 327 326 325 323 322 322 323 322 322 321 320 320 321 321 321 321 321 323 324 325 327 327 329 329 329 331 333 336 335
323 324 323 323 323 323 321 321 322 322 325 326 325 325 325 329 326 324 324 323 323 323 322 321 320 319 318 318 319 319 320 321 322 322 322 325 327 327 330 331 332 334 334 333
323 323 324 322 323 324 323 321 322 323 324 331 330 328 326 326 327 327 325 323 323 322 321 319 318 317 317 317 318 319 319 320 321 321 323 324 326 327 326 327 330 332 333 332
321 322 324 322 321 322 324 324 325 330 328 327 328 328 326 325 324 324 323 323 322 320 319 317 317 317 318 318 318 319 318 318 319 319 320 322 324 323 323 325 327 329 329 330
321 323 323 321 321 321 321 323 325 326 328 329 331 328 324 323 323 322 322 322 321 318 317 317 317 317 317 318 318 318 318 317 317 318 318 318 319 322 323 321 320 320 325 328
317 320 321 323 321 321 322 321 321 325 328 327 326 324 323 324 322 321 321 320 319 317 317 317 317 316 316 316 317 317 316 316 315 316 316 316 317 319 319 319 319 319 319 320
318 319 318 318 318 318 318 319 320 321 323 325 324 322 322 321 321 320 320 319 318 317 317 316 316 316 316 316 316 316 315 314 314 315 315 315 315 315 317 317 316 316 317 316
317 317 317 318 317 317 318 318 318 318 318 319 319 319 318 318 317 318 318 318 317 316 316 316 316 315 315 315 316 316 315 314 315 315 315 314 314 314 314 316 316 315 316 315
315 317 318 319 317 319 321 318 317 317 317 317 318 318 318 317 319 318 317 316 316 315 315 314 314 315 314 314 314 314 314 313 313 313 313 312 313 313 313 313 315 315 314 315
314 314 316 320 317 321 317 318 317 317 317 317 317 317 317 318 317 316 314 314 314 315 315 314 314 313 313 313 313 312 311 311 311 311 310 311 311 312 312 313 312 314 314 313
313 313 318 320 319 318 318 317 319 319 318 318 319 318 316 315 314 314 314 314 314 314 313 312 312 312 312 312 312 311 310 309 310 309 309 308 308 308 309 311 313 312 314 314
314 314 315 318 322 320 321 318 316 315 316 317 316 316 315 314 314 314 313 312 311 311 310 310 309 310 311 311 311 310 309 308 308 307 307 307 306 306 307 307 309 312 311 313
317 316 316 317 320 318 318 317 315 317 319 316 315 313 312 312 312 311 310 309 309 309 309 309 309 310 311 310 309 308 307 308 307 307 306 305 305 305 304 306 306 308 310 310
318 320 319 319 318 320 316 316 317 317 314 313 312 311 311 310 309 309 309 309 309 309 308 308 309 309 307 307 307 307 307 307 307 306 305 305 304 303 303 304 305 305 306 308
319 316 316 316 319 317 316 315 314 313 312 311 311 310 309 309 309 308 308 308 308 308 308 308 307 306 306 306 305 305 304 304 304 304 304 304 303 302 302 302 303 304 304 305
314 314 316 315 316 315 314 314 312 312 312 312 311 310 309 308 308 308 308 307 307 307 306 305 305 303 302 301 301 300 300 300 300 303 302 302 302 302 302 301 301 302 302 303
312 312 313 314 314 314 313 312 310 311 311 310 309 307 307 307 307 306 306 306 304 304 304 302 300 299 299 298 298 298 298 297 298 299 299 300 301 300 300 301 301 301 302 302
312 313 314 315 313 313 312 310 310 309 308 307 307 307 306 306 306 304 302 303 303 301 299 298 297 296 296 296 296 296 297 297 298 299 298 299 299 299 300 300 301 301 301 301

GFSCGP_850_thetae_117.txt.gz
Theta_e
318 315 315 316 316 316 317 318 317 317 318 318 317 317 317 319 320 321 321 321 321 321 321 321 321 321 323 325 326 329 330 347 349 350 352 352 351 349 348 349 349 347 347 347
317 315 317 318 319 318 318 317 317 318 320 320 319 318 318 319 319 320 321 321 321 321 321 322 321 322 324 324 323 323 323 324 337 349 347 351 351 352 349 347 347 347 347 347
316 318 319 319 318 319 317 317 318 319 319 318 318 318 319 320 320 321 321 321 321 321 321 321 321 322 322 322 323 323 323 322 323 331 347 347 347 348 348 350 351 348 347 349
318 319 320 319 318 317 316 318 319 319 317 315 318 315 318 319 317 317 320 321 322 321 321 321 321 321 323 322 321 321 326 327 326 324 324 337 344 347 349 347 347 346 348 348
319 318 318 318 318 317 316 317 317 317 315 315 315 315 315 317 318 318 318 321 322 322 321 322 321 322 322 322 322 322 324 327 328 328 327 328 330 336 338 341 345 345 346 347
318 318 318 317 318 318 318 317 316 315 315 315 318 318 317 318 318 318 319 320 321 321 321 321 322 322 322 322 323 324 325 325 326 326 326 327 328 327 324 327 337 343 344 343
317 317 317 318 317 317 316 315 313 314 315 316 317 317 317 318 319 320 320 321 321 321 322 322 323 323 323 323 323 323 324 324 324 324 325 325 325 327 328 328 325 322 329 339
320 322 321 321 318 316 316 316 313 315 317 318 320 321 320 323 324 323 323 322 323 323 323 322 322 322 322 322 322 322 322 322 322 321 320 321 324 325 325 325 327 327 330 328
318 322 321 322 322 321 321 317 316 319 319 319 319 320 322 324 324 323 323 323 322 322 322 321 320 320 320 320 320 320 320 320 320 321 323 323 325 327 327 328 329 329 329 330
323 325 323 323 322 322 322 321 321 318 323 322 322 322 324 326 325 324 323 323 322 322 321 320 319 318 318 318 317 318 319 320 321 323 323 323 323 323 327 324 323 323 322 328
322 322 323 321 322 322 321 323 321 318 324 326 327 326 324 324 324 322 321 322 322 321 320 318 317 317 317 317 318 319 319 319 320 320 320 320 321 323 324 322 322 320 317 322
320 320 323 322 319 318 318 320 324 326 324 322 321 323 322 321 322 322 321 321 322 322 320 318 317 317 317 317 318 318 318 317 317 316 317 318 318 319 319 319 320 319 318 318
319 320 320 319 318 319 321 322 320 319 324 327 327 326 322 322 320 321 321 321 321 321 319 317 317 317 317 316 317 317 317 317 317 316 316 316 317 317 317 317 317 318 317 317
318 319 320 319 319 319 320 321 321 321 323 326 325 324 323 324 321 320 320 319 320 320 319 318 317 317 316 316 316 316 316 317 315 316 315 315 315 315 314 315 316 315 316 317
317 317 317 316 316 316 317 317 317 322 320 323 321 324 321 320 320 319 319 318 318 318 318 317 316 315 315 315 315 316 316 316 315 314 314 315 315 314 314 314 314 314 314 315
316 316 315 316 315 315 317 317 316 316 318 320 320 320 318 317 317 318 318 318 318 318 317 316 316 315 315 316 315 315 316 316 315 314 314 314 313 313 313 312 313 312 313 313
316 315 313 314 316 318 320 318 317 317 316 316 316 316 315 317 317 318 317 316 316 315 315 314 314 314 313 313 312 312 313 313 313 313 313 312 312 312 312 312 312 312 312 313
315 314 313 315 315 320 317 318 319 318 319 319 318 317 315 314 315 316 315 313 313 313 313 312 312 312 312 311 312 312 312 312 312 311 311 310 310 309 309 308 307 310 311 312
312 314 314 317 319 318 316 317 319 319 319 317 317 316 315 314 313 313 312 311 310 310 310 309 310 309 309 309 309 309 309 310 311 310 309 309 309 309 308 308 307 307 308 308
313 313 312 315 319 320 319 317 316 315 318 317 316 314 312 312 311 310 310 309 309 310 309 309 309 309 308 308 308 311 312 312 310 309 309 308 308 308 307 306 306 305 304 304
316 314 314 314 316 316 318 317 316 318 317 316 314 312 311 310 310 310 309 309 308 308 308 309 308 308 308 308 308 307 307 307 307 307 308 308 307 307 306 306 305 305 304 302
316 316 316 316 316 320 315 316 317 316 314 313 312 311 310 310 309 309 308 308 308 308 307 307 307 308 307 306 305 305 305 305 304 303 303 303 304 304 305 305 305 304 303 302
317 316 316 313 316 315 314 315 313 312 312 311 311 310 308 308 308 307 307 307 306 306 306 305 304 304 304 304 302 301 301 300 300 299 299 300 300 301 302 304 303 303 303 303
314 314 315 315 315 314 314 312 311 311 311 310 308 307 307 307 306 306 306 306 304 303 303 303 303 302 301 300 299 298 297 297 297 298 298 298 299 300 301 302 302 302 302 302
311 312 313 313 314 314 312 310 310 311 309 307 307 306 306 306 306 303 302 303 303 302 302 301 299 298 297 295 295 294 294 295 296 297 297 298 298 299 299 300 301 300 300 301
312 313 313 312 312 311 311 310 309 306 306 306 305 305 305 302 301 302 302 302 301 299 298 296 296 295 294 293 293 293 293 293 294 294 296 297 299 299 299 299 299 299 300 301

GFSCGP_850_thetae_123.txt.gz
Theta_e
312 312 312 312 310 313 313 314 313 314 314 315 313 313 313 314 315 315 318 319 319 319 320 320 320 320 320 323 325 327 332 338 345 342 345 343 341 341 341 343 344 345 344 341
312 313 313 313 314 315 315 315 314 314 314 314 314 315 313 313 313 315 317 318 319 320 320 319 320 320 320 321 324 332 339 342 343 345 345 343 342 344 343 345 345 347 345 346
312 314 315 314 314 315 314 315 315 315 315 315 315 313 313 314 314 315 316 318 319 320 320 320 320 320 320 323 325 327 331 342 344 345 345 349 349 347 345 346 345 346 344 344
314 314 316 316 315 315 315 315 315 316 314 313 312 312 311 313 314 316 316 317 319 320 320 320 320 320 321 323 327 331 338 341 342 341 339 334 330 335 340 343 339 336 336 334
315 316 317 316 315 315 314 315 314 314 313 311 312 311 311 312 316 314 314 316 318 320 319 320 320 320 321 327 330 327 324 322 322 321 321 321 321 322 321 321 321 324 324 323
315 316 316 315 315 315 315 313 309 308 309 311 311 312 313 314 315 314 314 318 320 320 319 320 320 320 323 326 325 324 323 324 325 325 324 322 321 321 321 322 322 322 321 319
315 314 315 316 317 314 312 309 310 312 310 312 312 313 312 313 316 317 318 317 319 320 319 318 318 319 323 325 324 326 328 328 327 325 324 324 323 323 322 321 320 320 320 320
316 316 317 319 319 319 317 311 309 313 311 311 314 316 315 321 319 318 317 317 318 318 318 318 319 321 324 326 327 328 326 325 325 324 323 322 321 320 320 319 318 320 321 322
317 319 321 321 321 319 318 319 313 312 313 315 314 315 316 321 320 318 317 317 318 320 323 325 326 327 326 326 325 324 323 322 321 320 319 319 318 319 320 320 321 322 323 323
317 321 321 321 320 321 321 319 321 316 321 320 317 318 316 323 321 319 317 314 317 318 318 318 320 321 321 321 320 320 319 318 318 318 318 319 319 321 322 322 322 323 323 322
318 319 321 319 319 319 319 321 321 319 321 322 321 319 321 321 320 319 319 319 317 316 317 317 317 317 317 317 317 317 318 318 319 319 319 320 321 321 321 320 319 318 317 315
318 318 321 321 318 318 317 318 319 321 321 318 318 319 320 321 320 320 320 320 318 317 316 317 318 317 317 317 317 317 317 318 318 318 318 317 317 317 317 317 316 314 314 315
317 316 318 318 315 315 318 318 317 317 317 320 319 321 319 320 320 320 319 320 321 321 320 320 317 319 317 317 317 317 317 316 316 316 315 315 314 315 315 314 313 313 313 313
315 315 315 316 316 315 316 316 316 316 319 320 322 322 320 319 319 319 320 321 319 318 319 320 318 317 316 316 316 316 316 315 315 315 315 315 315 315 315 315 314 313 313 312
311 314 315 315 314 314 314 314 313 315 315 318 316 319 318 316 315 315 318 319 320 319 317 318 317 316 315 315 315 315 315 315 315 315 316 316 315 315 315 315 314 313 313 313
311 312 312 314 313 313 313 313 315 315 315 314 315 316 313 315 316 316 316 316 315 313 313 313 314 313 313 313 313 312 313 313 314 314 313 313 313 312 313 314 314 314 314 313
312 313 311 312 312 312 311 311 311 315 314 314 314 313 313 313 312 310 310 310 310 309 309 309 309 309 309 309 309 310 310 310 309 310 310 310 309 309 309 310 311 311 311 310
311 313 312 314 309 312 309 314 317 318 318 316 315 313 312 310 309 309 309 309 309 309 309 308 308 308 308 308 308 308 308 308 308 308 308 307 307 308 309 310 310 310 310 310
307 311 314 313 312 311 313 317 316 317 318 316 315 313 314 314 310 309 308 308 308 308 308 308 308 308 308 308 308 308 307 307 307 307 307 307 307 307 307 308 308 308 309 309
310 312 313 313 309 313 318 316 316 315 317 313 315 314 310 309 309 307 308 308 308 308 307 308 308 307 307 306 306 306 306 305 305 304 304 304 304 303 303 303 303 303 303 304
314 313 313 313 314 311 314 313 315 318 312 312 309 308 308 307 306 308 307 307 307 307 307 306 306 305 305 305 304 303 303 303 303 302 302 302 302 301 301 300 300 300 300 301
313 315 314 314 315 312 311 314 316 313 312 311 310 307 307 307 307 306 306 306 306 305 304 303 302 302 302 302 302 301 301 301 301 301 300 300 299 298 297 296 297 297 298 298
312 314 314 315 311 311 312 314 312 311 311 311 309 307 306 306 305 305 305 304 303 302 302 301 301 301 301 300 299 300 301 299 297 297 296 296 296 296 296 296 296 297 297 298
309 311 314 311 312 313 311 311 311 310 310 309 306 305 305 304 303 303 302 302 301 301 301 300 299 299 299 300 299 297 296 296 295 296 297 297 296 296 296 295 297 297 297 298
309 308 310 310 312 312 311 311 310 309 308 304 304 304 304 302 302 301 301 300 300 299 299 298 298 297 296 296 296 296 296 296 296 296 296 296 296 296 296 296 296 296 297 298
309 311 312 309 310 309 307 304 305 304 304 304 303 303 302 301 300 300 299 298 297 297 296 295 294 293 295 295 295 296 296 295 294 295 297 298 297 297 296 296 298 298 297 297